Vertical_Velocity
1 2 9 3 3 1 2 2 5 0 -6 2 4 3 0 -3 -5 0 -2 1 -3 2 2 -4 0 -4 -2 -4 1 1 -1 -3 3 1 0 -4 2 -2 3 -1 0 1 -1 0
0 7 3 0 3 1 -0 4 4 2 -5 -3 -5 -3 -1 0 -2 -2 -2 -2 -0 0 2 8 -1 -0 2 -3 -2 1 1 -1 -2 -0 -1 -3 1 -0 5 3 2 2 -1 1
3 9 -1 3 2 1 -2 9 1 -0 -4 -3 -3 -0 -2 3 -0 -3 -2 -2 0 -3 1 1 5 0 1 -1 -3 -1 -1 -4 0 -2 0 1 5 1 2 -2 1 1 2 -1
3 -3 0 2 2 2 5 7 2 -2 -0 -0 -2 -6 2 1 -7 -1 -1 -2 -2 0 -0 4 2 3 4 -1 -3 1 -1 -2 -3 -1 -3 0 -6 -2 0 -1 3 1 2 3
6 -1 1 1 4 2 7 4 2 -2 -0 -1 -1 -1 -4 1 4 -1 2 0 -0 -4 -5 3 -1 -1 1 1 -1 -1 -1 -1 -1 -0 -3 -1 -3 -0 3 -3 1 2 2 4
3 1 1 8 -7 6 1 3 0 -2 -1 -2 1 -1 1 5 -0 4 4 -1 -1 -1 3 1 -7 -4 -1 3 -1 -3 1 -0 -0 0 -2 0 -1 -2 1 -3 1 1 2 2
0 1 -3 4 3 6 1 1 -1 -0 -1 2 5 3 12 5 -9 -3 -1 2 2 3 2 -1 -0 -1 -1 0 1 1 -4 2 -0 1 -1 -0 0 0 -0 1 0 0 0 -0
5 3 -1 1 4 4 5 1 2 3 1 9 -1 5 -7 4 -2 2 1 -6 -4 -4 -2 1 1 4 2 1 -2 1 -4 -0 -0 -1 -1 -1 1 -1 0 1 -0 -0 -1 -2
6 5 -3 6 4 4 1 -1 2 2 7 9 6 8 -7 -5 -9 -4 -3 0 1 -5 -1 3 3 3 -3 2 0 1 4 -9 2 -4 -4 0 1 0 -0 -0 -1 1 -1 -1
4 5 -0 5 3 1 -1 5 -3 0 3 5 11 -12 -8 -6 -5 -10 -5 -3 0 1 -1 2 -0 4 2 4 1 4 4 8 -9 -3 -4 -1 1 0 -1 0 -0 -2 -1 -1
6 9 4 3 -2 3 -0 0 -5 4 4 4 -5 -11 -4 -1 -5 -0 -4 -5 4 -0 -2 0 0 5 -4 -5 -7 2 2 3 5 0 1 -3 -0 0 -0 -1 0 1 -1 -0
8 9 7 1 -6 4 -1 -1 1 4 4 -1 -13 -1 -6 -4 -4 -3 -3 -4 -3 3 0 -4 -7 -5 13 -4 -11 -1 1 4 4 2 3 3 -3 -1 0 -0 -2 -1 -1 -3
4 8 6 2 1 0 0 -0 3 5 7 -2 -8 -12 -4 7 -4 -4 -2 -5 -1 -1 2 -4 -2 2 4 4 2 -2 2 -7 -4 -2 1 3 3 -1 4 2 -1 -1 -2 -1
1 3 3 -5 -5 -3 1 -0 1 8 2 -5 -18 -7 6 -4 5 7 3 -1 -3 2 -1 2 -0 2 1 3 0 -3 4 -1 -5 -10 -2 0 1 2 -1 2 -1 -1 0 -2
-4 -2 1 -0 1 -2 4 4 -1 -3 2 -9 -2 -12 11 -5 -2 8 4 2 0 -4 -2 4 -4 3 -1 1 1 3 -5 1 -2 -2 -7 0 -3 0 -1 0 3 -3 -1 -1
3 -1 -4 -2 -1 3 6 1 -0 -5 -8 -2 -6 -10 -3 0 -6 2 7 5 1 3 1 4 -6 7 -3 -4 -5 -1 2 2 -0 -3 0 1 -2 -2 3 -3 1 1 -2 -1
-1 -3 -1 1 -3 -3 -2 7 -2 -9 -1 -2 -8 -2 -15 3 -8 -3 2 -0 8 1 1 2 1 0 -1 1 -3 -2 2 3 4 4 -2 1 0 -0 4 1 -5 -1 1 -4
4 -3 -3 -0 -0 -2 -10 4 0 -4 -7 -12 -4 -3 -8 -2 1 -6 -2 2 -2 7 4 3 4 3 -7 -3 -1 3 2 4 8 5 4 -1 1 0 -2 -4 3 0 -6 -4
-1 -3 -1 -3 0 -3 1 -1 -10 -11 -12 -15 -6 -2 -6 1 -7 -5 -2 -0 5 -1 6 4 0 3 -1 2 -2 0 1 2 2 -0 4 -0 0 -2 -1 4 -1 5 -2 -4
-2 -0 -4 -4 -7 -6 9 1 -7 -15 -27 -7 0 3 -2 -5 2 -5 -3 -3 -1 6 -1 4 4 -1 1 3 2 -1 -0 2 4 9 6 -7 -1 -0 1 -1 2 4 4 3
-0 -1 -1 -5 -8 -1 13 -1 -7 -16 5 -12 -4 -3 1 -3 9 -3 -9 -3 -4 -0 7 -2 1 -3 -0 -2 -0 4 1 -2 7 10 -1 6 -3 -2 -2 2 -0 3 3 1
-2 -5 -2 -0 -6 -3 0 2 -10 -4 -4 -3 -3 -7 -2 -2 13 1 -2 -5 -1 -1 -5 11 -3 -3 -4 -2 -1 5 -1 16 4 18 17 11 5 -3 15 5 -4 1 2 3
-3 -3 -5 -6 -5 -7 -4 -3 -2 -4 -1 -6 -3 -4 -5 -2 -1 4 0 -2 -3 -1 3 1 11 -1 -2 -3 -4 9 -19 -5 11 -8 -14 -16 -17 -13 0 10 -1 1 1 2
-1 -2 -5 -4 -6 -7 -9 -6 -3 -1 2 -0 -1 2 -2 -3 -6 16 -7 -5 -6 -4 -1 -5 2 8 3 8 3 6 4 -4 5 7 -13 8 3 1 -4 1 -2 -2 1 7
-2 -3 -4 -5 -6 -4 -2 -1 -5 -5 0 1 -1 -2 -3 -6 -2 7 1 -3 -8 -7 -4 -3 -3 -1 2 -0 4 6 8 -7 1 1 4 -1 5 2 -1 1 -5 1 9 2
-1 -1 0 0 -5 -4 -2 -6 -5 -5 -3 2 4 3 -2 -4 -2 2 1 -5 -5 -8 -8 -4 -6 -3 -7 5 0 6 3 14 2 0 -10 3 3 1 7 -0 -1 13 6 -2
Height
5833 5838 5843 5845 5849 5852 5856 5860 5863 5860 5863 5871 5875 5877 5877 5878 5881 5885 5889 5891 5893 5895 5899 5898 5898 5901 5904 5906 5907 5912 5915 5918 5923 5924 5925 5926 5929 5930 5934 5935 5933 5935 5935 5936
5828 5834 5837 5839 5843 5846 5849 5855 5858 5858 5858 5863 5867 5872 5875 5878 5881 5884 5887 5888 5892 5893 5898 5902 5899 5902 5906 5905 5908 5910 5914 5918 5921 5923 5925 5927 5929 5932 5934 5934 5935 5936 5938 5940
5823 5830 5829 5833 5837 5841 5845 5853 5853 5853 5854 5859 5863 5869 5873 5877 5879 5882 5885 5887 5890 5891 5893 5899 5902 5901 5903 5906 5909 5910 5912 5916 5920 5923 5926 5928 5929 5932 5933 5933 5936 5938 5941 5942
5818 5821 5825 5829 5834 5838 5843 5849 5849 5849 5852 5856 5860 5864 5871 5872 5876 5882 5883 5884 5884 5887 5891 5895 5899 5900 5902 5903 5907 5911 5912 5915 5920 5923 5926 5928 5928 5930 5933 5934 5937 5939 5942 5944
5813 5815 5820 5825 5829 5834 5838 5842 5845 5845 5848 5852 5856 5861 5866 5871 5876 5878 5881 5881 5882 5884 5888 5892 5893 5899 5899 5900 5904 5909 5911 5914 5919 5922 5925 5928 5930 5930 5933 5934 5937 5939 5942 5945
5805 5808 5813 5819 5821 5828 5832 5836 5841 5842 5843 5848 5852 5857 5864 5871 5872 5876 5879 5878 5880 5882 5887 5886 5889 5893 5898 5900 5901 5906 5910 5913 5917 5920 5924 5928 5930 5932 5932 5934 5936 5939 5941 5944
5799 5802 5806 5813 5817 5821 5826 5830 5836 5841 5841 5846 5849 5853 5863 5867 5867 5869 5873 5876 5878 5880 5883 5886 5888 5892 5896 5900 5904 5904 5909 5912 5915 5919 5922 5925 5929 5932 5933 5935 5937 5939 5940 5944
5794 5798 5801 5805 5810 5814 5819 5823 5828 5834 5837 5839 5843 5848 5857 5860 5862 5866 5869 5870 5872 5877 5881 5886 5889 5891 5895 5898 5900 5903 5906 5909 5914 5918 5921 5923 5926 5929 5932 5934 5935 5938 5940 5943
5788 5791 5793 5798 5802 5807 5810 5814 5820 5826 5829 5833 5839 5843 5851 5849 5852 5858 5863 5867 5872 5875 5879 5883 5887 5890 5892 5896 5899 5902 5904 5905 5910 5915 5919 5921 5924 5927 5930 5932 5933 5936 5939 5941
5780 5784 5786 5790 5794 5798 5801 5807 5812 5816 5821 5824 5833 5835 5837 5841 5846 5849 5855 5861 5866 5870 5872 5877 5881 5885 5889 5893 5898 5900 5903 5906 5905 5909 5915 5919 5922 5924 5926 5930 5932 5934 5937 5940
5775 5779 5780 5783 5785 5790 5794 5798 5803 5808 5811 5814 5822 5826 5829 5831 5839 5844 5849 5856 5860 5864 5868 5873 5876 5880 5883 5886 5891 5894 5900 5904 5908 5911 5913 5916 5920 5923 5925 5928 5931 5933 5935 5938
5768 5773 5774 5776 5777 5783 5785 5790 5795 5799 5802 5805 5811 5819 5821 5826 5833 5839 5843 5849 5856 5860 5863 5866 5867 5871 5876 5879 5883 5888 5893 5898 5902 5907 5912 5915 5917 5918 5923 5926 5928 5931 5934 5936
5761 5765 5766 5769 5772 5775 5778 5782 5787 5789 5793 5796 5804 5811 5816 5820 5826 5832 5839 5843 5850 5856 5859 5857 5860 5865 5871 5874 5878 5882 5886 5892 5895 5898 5904 5910 5913 5917 5919 5923 5926 5927 5930 5934
5755 5757 5761 5764 5766 5770 5774 5777 5779 5781 5785 5789 5796 5803 5803 5813 5822 5829 5833 5837 5842 5849 5852 5853 5856 5858 5863 5868 5870 5874 5879 5882 5886 5892 5897 5901 5907 5911 5914 5916 5919 5924 5926 5928
5749 5751 5755 5759 5762 5765 5769 5770 5770 5772 5776 5783 5789 5793 5791 5801 5811 5820 5825 5830 5835 5840 5843 5846 5849 5852 5854 5859 5862 5866 5871 5876 5882 5885 5890 5895 5899 5903 5906 5911 5914 5916 5921 5923
5745 5747 5748 5752 5756 5759 5761 5761 5762 5764 5766 5771 5777 5782 5783 5786 5796 5807 5816 5822 5826 5830 5835 5838 5840 5843 5848 5850 5853 5856 5860 5867 5873 5880 5884 5888 5892 5895 5900 5903 5908 5910 5914 5917
5737 5739 5742 5745 5748 5750 5753 5754 5752 5753 5757 5760 5762 5772 5772 5770 5782 5793 5801 5810 5817 5820 5825 5830 5833 5835 5840 5843 5844 5848 5852 5859 5865 5871 5875 5880 5884 5889 5892 5895 5899 5904 5907 5910
5728 5731 5733 5736 5739 5742 5742 5740 5738 5740 5743 5746 5748 5753 5760 5756 5763 5778 5786 5795 5803 5809 5813 5818 5823 5827 5830 5834 5837 5840 5845 5852 5857 5864 5869 5873 5877 5881 5885 5890 5893 5898 5901 5903
5719 5722 5724 5726 5729 5731 5731 5728 5726 5725 5727 5727 5731 5736 5745 5744 5744 5759 5770 5779 5789 5796 5801 5806 5812 5816 5820 5825 5830 5833 5838 5841 5848 5856 5863 5864 5870 5873 5877 5884 5889 5891 5893 5897
5712 5714 5716 5717 5718 5718 5718 5714 5711 5710 5714 5710 5708 5715 5725 5731 5727 5737 5751 5762 5771 5782 5788 5794 5800 5805 5810 5815 5821 5828 5831 5837 5841 5849 5852 5856 5862 5867 5870 5875 5879 5882 5886 5888
5707 5708 5709 5708 5707 5707 5707 5705 5699 5698 5702 5694 5692 5696 5701 5713 5712 5716 5729 5743 5753 5763 5773 5779 5787 5792 5797 5802 5808 5815 5821 5827 5835 5840 5845 5850 5853 5858 5863 5866 5870 5874 5878 5881
5702 5702 5701 5700 5699 5699 5696 5694 5691 5688 5685 5683 5682 5682 5685 5691 5695 5696 5704 5721 5733 5743 5754 5760 5771 5778 5783 5789 5797 5802 5806 5813 5822 5830 5835 5838 5844 5851 5855 5858 5861 5865 5869 5873
5697 5696 5694 5693 5691 5688 5685 5682 5678 5676 5674 5672 5672 5671 5673 5677 5680 5680 5686 5697 5712 5723 5732 5743 5753 5763 5770 5776 5783 5789 5797 5806 5809 5815 5825 5832 5837 5842 5846 5848 5851 5857 5860 5864
5694 5692 5690 5688 5685 5681 5677 5672 5668 5665 5663 5661 5660 5661 5661 5664 5666 5667 5672 5675 5690 5702 5712 5723 5733 5744 5755 5764 5770 5773 5785 5794 5803 5809 5814 5823 5829 5831 5836 5840 5842 5849 5855 5858
5688 5686 5683 5681 5677 5675 5670 5664 5658 5654 5651 5650 5649 5649 5648 5651 5654 5651 5656 5663 5669 5682 5693 5702 5715 5724 5738 5749 5754 5762 5769 5779 5789 5798 5805 5813 5819 5819 5823 5830 5835 5841 5847 5849
5681 5679 5678 5675 5671 5665 5661 5657 5651 5646 5642 5639 5638 5637 5638 5639 5640 5638 5642 5647 5653 5661 5672 5683 5695 5707 5716 5727 5739 5747 5756 5765 5773 5784 5795 5799 5806 5810 5814 5819 5824 5830 5836 5839